Location: Franzen
(48.6167°N, 15.3833°E)
Time: 11:58:32
(UTC+00:00)

Cosmos 2333 Rocket - Pass Details

Date: 22 April 2021
Orbit: 838 x 864 km, 70.8° (Epoch: 16 May)

Event Time Altitude Azimuth Distance (km) Brightness Sun altitude
Rises 19:08:55 0° 322° (NW) 3,452 6.9 -10.9°
Reaches altitude 10° 19:11:49 10° 309° (NW) 2,507 6.2 -11.3°
Maximum altitude 19:16:18 24° 258° (WSW) 1,709 4.3 -11.9°
Drops below altitude 10° 19:20:45 10° 206° (SSW) 2,482 4.5 -12.5°
Sets 19:23:37 0° 193° (SSW) 3,408 5.1 -12.9°
